WWA3311 CYUL-CYVR

Flight info

Callsign WWA3311
Flight time N/A
Altitude 38000
Route KESKA DCT BIPKO Q997 SASID DCT NAGNO Q919 OMVEG Q940 KOBID Q831 DURUR Q828 RABOX DCT BOTAG Q894 BOOTH CANUC6
Aircraft GLF5/M-SBDE2E3FGHIJ3J4J5P2RWXY/LB1D1

Departure

Time 2026-05-05 18:15
Airport Montreal / Pierre Elliott Trudeau International Airport (CYUL)

Arrival

Time N/A
Airport Vancouver International Airport (CYVR)
Time Latitude Longitude Altitude Speed Heading
2026-05-05 18:08 45.46973 -73.71996 125 ft 0 kts 329°
2026-05-05 18:11 45.46988 -73.72027 125 ft 7 kts 288°
2026-05-05 18:12 45.47019 -73.72102 124 ft 11 kts 337°
2026-05-05 18:12 45.47094 -73.72028 125 ft 16 kts 43°
2026-05-05 18:12 45.47197 -73.71892 128 ft 22 kts 42°
2026-05-05 18:12 45.47330 -73.71725 131 ft 29 kts 41°
2026-05-05 18:13 45.47477 -73.71510 135 ft 31 kts 40°
2026-05-05 18:13 45.47577 -73.71430 137 ft 0 kts 333°
2026-05-05 18:14 45.47591 -73.71450 136 ft 5 kts 311°
2026-05-05 18:14 45.47649 -73.71537 135 ft 15 kts 312°
2026-05-05 18:14 45.47655 -73.71661 132 ft 13 kts 224°
2026-05-05 18:14 45.47528 -73.71828 129 ft 55 kts 224°
2026-05-05 18:15 45.47136 -73.72350 122 ft 116 kts 223°
2026-05-05 18:15 45.46494 -73.73168 543 ft 119 kts 223°
2026-05-05 18:15 45.45810 -73.74004 887 ft 133 kts 222°
2026-05-05 18:15 45.45097 -73.74886 1356 ft 141 kts 223°
2026-05-05 18:16 45.44501 -73.75925 1680 ft 158 kts 241°
2026-05-05 18:16 45.44214 -73.77546 2245 ft 168 kts 264°
2026-05-05 18:16 45.44475 -73.79264 2836 ft 183 kts 285°
2026-05-05 18:16 45.45089 -73.80785 3261 ft 187 kts 295°
2026-05-05 18:17 45.45913 -73.82134 2860 ft 214 kts 306°
2026-05-05 18:17 45.46977 -73.83591 3579 ft 174 kts 307°
2026-05-05 18:17 45.47767 -73.84671 4075 ft 142 kts 302°
2026-05-05 18:17 45.48486 -73.85660 4773 ft 150 kts 304°
2026-05-05 18:18 45.49256 -73.86567 5492 ft 158 kts 307°
2026-05-05 18:18 45.50153 -73.87587 6277 ft 166 kts 307°
2026-05-05 18:18 45.51030 -73.88585 6999 ft 175 kts 307°
2026-05-05 18:18 45.51979 -73.89677 7754 ft 186 kts 307°
2026-05-05 18:19 45.52929 -73.90788 8471 ft 197 kts 307°
2026-05-05 18:19 45.54055 -73.92117 9264 ft 212 kts 307°
2026-05-05 18:19 45.54986 -73.93771 10067 ft 206 kts 282°
2026-05-05 18:19 45.55530 -73.95711 10858 ft 219 kts 283°
2026-05-05 18:20 45.56119 -73.97701 11597 ft 235 kts 284°
2026-05-05 18:20 45.56784 -73.99882 12363 ft 252 kts 284°
2026-05-05 18:20 45.57518 -74.02251 13145 ft 269 kts 285°
2026-05-05 18:20 45.58332 -74.04840 13942 ft 286 kts 285°
2026-05-05 18:21 45.59144 -74.07413 14687 ft 302 kts 285°
2026-05-05 18:21 45.60022 -74.10189 15361 ft 320 kts 286°
2026-05-05 18:21 45.60947 -74.13113 15996 ft 338 kts 287°
2026-05-05 18:21 45.62165 -74.16147 16653 ft 363 kts 297°
2026-05-05 18:22 45.63653 -74.19026 17294 ft 371 kts 298°
2026-05-05 18:22 45.65153 -74.21948 17938 ft 368 kts 297°
2026-05-05 18:22 45.66694 -74.24963 18603 ft 371 kts 297°
2026-05-05 18:22 45.68240 -74.28004 19248 ft 373 kts 297°
2026-05-05 18:23 45.69743 -74.30967 19876 ft 376 kts 297°
2026-05-05 18:23 45.71264 -74.33964 20514 ft 379 kts 297°
2026-05-05 18:23 45.72830 -74.37069 21169 ft 381 kts 297°
2026-05-05 18:23 45.74380 -74.40181 21833 ft 384 kts 297°
2026-05-05 18:24 45.75891 -74.43218 22451 ft 386 kts 297°
2026-05-05 18:24 45.77435 -74.46324 23093 ft 390 kts 297°
2026-05-05 18:24 45.78992 -74.49460 23743 ft 392 kts 297°
2026-05-05 18:24 45.80595 -74.52701 24315 ft 407 kts 297°
2026-05-05 18:25 45.82142 -74.55826 24824 ft 418 kts 298°
2026-05-05 18:25 45.83201 -74.58014 25163 ft 417 kts 295°
2026-05-05 18:25 45.84547 -74.62969 25857 ft 395 kts 278°
2026-05-05 18:25 45.85130 -74.66324 26333 ft 391 kts 277°
2026-05-05 18:26 45.85732 -74.69817 26853 ft 387 kts 278°
2026-05-05 18:26 45.86342 -74.73365 27375 ft 383 kts 277°
2026-05-05 18:26 45.86980 -74.77074 27926 ft 381 kts 277°
2026-05-05 18:26 45.87633 -74.80897 28496 ft 379 kts 278°
2026-05-05 18:27 45.88278 -74.84669 29072 ft 375 kts 277°
2026-05-05 18:27 45.88892 -74.88272 29615 ft 374 kts 277°
2026-05-05 18:27 45.89517 -74.91946 30184 ft 370 kts 277°
2026-05-05 18:27 45.90152 -74.95668 30756 ft 368 kts 277°
2026-05-05 18:28 45.91335 -75.02650 31861 ft 363 kts 277°
2026-05-05 18:28 45.91934 -75.06186 32435 ft 362 kts 277°
2026-05-05 18:28 45.92554 -75.09862 33030 ft 361 kts 278°
2026-05-05 18:29 45.93161 -75.13466 33612 ft 357 kts 277°
2026-05-05 18:29 45.93742 -75.16910 34183 ft 355 kts 277°
2026-05-05 18:29 45.94327 -75.20411 34758 ft 354 kts 277°
2026-05-05 18:29 45.94928 -75.23992 35246 ft 351 kts 277°
2026-05-05 18:30 45.95514 -75.27494 35668 ft 351 kts 278°
2026-05-05 18:30 45.96079 -75.30878 36068 ft 352 kts 278°
2026-05-05 18:30 45.96675 -75.34468 36488 ft 353 kts 277°
2026-05-05 18:30 45.97272 -75.38065 36913 ft 355 kts 278°
2026-05-05 18:31 45.97822 -75.41375 37349 ft 357 kts 278°
2026-05-05 18:31 45.98396 -75.44849 37787 ft 358 kts 277°
2026-05-05 18:31 45.98999 -75.48506 38265 ft 358 kts 277°
2026-05-05 18:31 45.99604 -75.52173 38740 ft 358 kts 278°
2026-05-05 18:32 46.00162 -75.55570 38850 ft 366 kts 277°
2026-05-05 18:32 46.00773 -75.59287 39117 ft 367 kts 277°
2026-05-05 18:32 46.01380 -75.63004 39593 ft 366 kts 278°
2026-05-05 18:32 46.01935 -75.66391 39963 ft 365 kts 277°
2026-05-05 18:33 46.02466 -75.69662 40309 ft 364 kts 278°
2026-05-05 18:33 46.03053 -75.73260 40657 ft 365 kts 278°
2026-05-05 18:33 46.04040 -75.76787 40958 ft 375 kts 292°
2026-05-05 18:33 46.05397 -75.80150 41296 ft 376 kts 293°
2026-05-05 18:34 46.06677 -75.83343 41609 ft 376 kts 294°
2026-05-05 18:34 46.08017 -75.86688 41942 ft 375 kts 293°
2026-05-05 18:34 46.09404 -75.90163 42267 ft 375 kts 293°
2026-05-05 18:34 46.10700 -75.93416 42590 ft 375 kts 294°
2026-05-05 18:35 46.13314 -75.99989 42634 ft 390 kts 294°
2026-05-05 18:35 46.16141 -76.07103 42632 ft 406 kts 294°
2026-05-05 18:36 46.19013 -76.14357 42623 ft 424 kts 294°
2026-05-05 18:36 46.22073 -76.22106 42615 ft 442 kts 294°
2026-05-05 18:37 46.25180 -76.29993 42627 ft 456 kts 294°
2026-05-05 18:37 46.28402 -76.38196 42608 ft 463 kts 295°
2026-05-05 18:38 46.31575 -76.46298 42611 ft 458 kts 294°
2026-05-05 18:38 46.34733 -76.54389 42610 ft 453 kts 295°
2026-05-05 18:39 46.37886 -76.62495 42614 ft 455 kts 294°
2026-05-05 18:39 46.40995 -76.70502 42608 ft 456 kts 294°
2026-05-05 18:40 46.44088 -76.78500 42606 ft 456 kts 294°
2026-05-05 18:40 46.47214 -76.86604 42594 ft 457 kts 293°
2026-05-05 18:41 46.50330 -76.94702 42596 ft 456 kts 293°
2026-05-05 18:41 46.53475 -77.02910 42619 ft 455 kts 294°
2026-05-05 18:42 46.56600 -77.11084 42604 ft 456 kts 294°
2026-05-05 18:42 46.59791 -77.19456 42587 ft 458 kts 294°
2026-05-05 18:43 46.62899 -77.27638 42587 ft 458 kts 294°
2026-05-05 18:43 46.66009 -77.35843 42608 ft 460 kts 294°
2026-05-05 18:44 46.69161 -77.44193 42586 ft 461 kts 294°
2026-05-05 18:44 46.71899 -77.52919 42598 ft 454 kts 287°
2026-05-05 18:45 46.74309 -77.61584 42588 ft 455 kts 288°
2026-05-05 18:45 46.76352 -77.68971 42607 ft 454 kts 287°
2026-05-05 18:46 46.78628 -77.77232 42605 ft 455 kts 287°
2026-05-05 18:46 46.81045 -77.86028 42610 ft 456 kts 287°
2026-05-05 18:47 46.83405 -77.94653 42607 ft 457 kts 287°
2026-05-05 18:47 46.85829 -78.03545 42615 ft 458 kts 287°
2026-05-05 18:48 46.88214 -78.12328 42592 ft 457 kts 287°
2026-05-05 18:48 46.90633 -78.21274 42591 ft 458 kts 288°
2026-05-05 18:49 46.93016 -78.30112 42596 ft 458 kts 287°
2026-05-05 18:49 46.95412 -78.39034 42573 ft 457 kts 287°
2026-05-05 18:50 46.97788 -78.47916 42591 ft 458 kts 288°
2026-05-05 18:50 47.00192 -78.56935 42585 ft 459 kts 288°
2026-05-05 18:51 47.02539 -78.65777 42600 ft 460 kts 287°
2026-05-05 18:51 47.04817 -78.74388 42601 ft 461 kts 287°
2026-05-05 18:52 47.07164 -78.83295 42590 ft 461 kts 287°
2026-05-05 18:52 47.09500 -78.92197 42598 ft 459 kts 287°
2026-05-05 18:53 47.11401 -78.99463 42587 ft 459 kts 287°
2026-05-05 18:53 47.13748 -79.08463 42600 ft 462 kts 287°
2026-05-05 18:54 47.16055 -79.17351 42610 ft 463 kts 287°
2026-05-05 18:54 47.18398 -79.26408 42609 ft 463 kts 287°
2026-05-05 18:55 47.20700 -79.35339 42597 ft 464 kts 287°
2026-05-05 18:55 47.23067 -79.44566 42603 ft 465 kts 287°
2026-05-05 18:56 47.25354 -79.53511 42602 ft 465 kts 287°
2026-05-05 18:56 47.27729 -79.62841 42609 ft 463 kts 287°
2026-05-05 18:57 47.29842 -79.71177 42598 ft 464 kts 287°
2026-05-05 18:57 47.32184 -79.80444 42608 ft 465 kts 287°
2026-05-05 18:58 47.34429 -79.89368 42596 ft 467 kts 287°
2026-05-05 18:58 47.36785 -79.98767 42604 ft 466 kts 287°
2026-05-05 18:59 47.38927 -80.07347 42606 ft 466 kts 287°
2026-05-05 18:59 47.41266 -80.16752 42608 ft 468 kts 287°
2026-05-05 19:00 47.43491 -80.25741 42607 ft 468 kts 287°
2026-05-05 19:00 47.45821 -80.35191 42599 ft 468 kts 287°
2026-05-05 19:01 47.48033 -80.44199 42606 ft 466 kts 287°
2026-05-05 19:01 47.50339 -80.53629 42618 ft 466 kts 287°
2026-05-05 19:02 47.52531 -80.62624 42620 ft 467 kts 287°
2026-05-05 19:02 47.54762 -80.71826 42619 ft 468 kts 287°
2026-05-05 19:03 47.56922 -80.80763 42626 ft 467 kts 286°
2026-05-05 19:03 47.59235 -80.90354 42626 ft 468 kts 287°
2026-05-05 19:04 47.61400 -80.99358 42625 ft 468 kts 287°
2026-05-05 19:04 47.63701 -81.08968 42622 ft 469 kts 287°
2026-05-05 19:05 47.65850 -81.17989 42625 ft 468 kts 287°
2026-05-05 19:05 47.68130 -81.27594 42617 ft 467 kts 287°
2026-05-05 19:06 47.70284 -81.36709 42620 ft 468 kts 287°
2026-05-05 19:06 47.72545 -81.46317 42621 ft 469 kts 287°
2026-05-05 19:07 47.74672 -81.55397 42620 ft 469 kts 287°
2026-05-05 19:07 47.76955 -81.65182 42626 ft 470 kts 286°
2026-05-05 19:08 47.78816 -81.73191 42636 ft 470 kts 286°
2026-05-05 19:08 47.81053 -81.82859 42635 ft 470 kts 286°
2026-05-05 19:09 47.83121 -81.91837 42623 ft 470 kts 286°
2026-05-05 19:09 47.85366 -82.01627 42618 ft 470 kts 286°
2026-05-05 19:10 47.87425 -82.10639 42612 ft 471 kts 286°
2026-05-05 19:10 47.89621 -82.20304 42627 ft 472 kts 286°
2026-05-05 19:11 47.91656 -82.29293 42630 ft 471 kts 286°
2026-05-05 19:11 47.93848 -82.39013 42628 ft 471 kts 286°
2026-05-05 19:12 47.95885 -82.48096 42624 ft 471 kts 287°
2026-05-05 19:12 47.98036 -82.57726 42627 ft 472 kts 287°
2026-05-05 19:13 47.99932 -82.66248 42628 ft 472 kts 286°
2026-05-05 19:13 48.02038 -82.75760 42631 ft 471 kts 286°
2026-05-05 19:14 48.04116 -82.85184 42629 ft 470 kts 286°
2026-05-05 19:14 48.06157 -82.94481 42628 ft 471 kts 286°
2026-05-05 19:15 48.08267 -83.04142 42627 ft 472 kts 286°
2026-05-05 19:15 48.10164 -83.12865 42635 ft 471 kts 286°
2026-05-05 19:16 48.12224 -83.22377 42640 ft 471 kts 286°
2026-05-05 19:16 48.14199 -83.31541 42637 ft 471 kts 286°
2026-05-05 19:17 48.16263 -83.41157 42635 ft 472 kts 286°
2026-05-05 19:17 48.18255 -83.50483 42633 ft 472 kts 286°
2026-05-05 19:18 48.20319 -83.60189 42631 ft 470 kts 286°
2026-05-05 19:18 48.22237 -83.69255 42639 ft 470 kts 285°
2026-05-05 19:19 48.24278 -83.78943 42638 ft 471 kts 285°
2026-05-05 19:19 48.26230 -83.88256 42644 ft 471 kts 285°
2026-05-05 19:20 48.28249 -83.97932 42645 ft 471 kts 285°
2026-05-05 19:20 48.30180 -84.07231 42644 ft 471 kts 286°
2026-05-05 19:21 48.32209 -84.17044 42648 ft 471 kts 286°
2026-05-05 19:21 48.34131 -84.26388 42658 ft 471 kts 286°
2026-05-05 19:22 48.36134 -84.36172 42655 ft 471 kts 286°
2026-05-05 19:22 48.38052 -84.45588 42641 ft 470 kts 286°
2026-05-05 19:23 48.40050 -84.55441 42641 ft 470 kts 286°
2026-05-05 19:23 48.41929 -84.64752 42640 ft 471 kts 286°
2026-05-05 19:24 48.43900 -84.74573 42631 ft 472 kts 285°
2026-05-05 19:24 48.45776 -84.83960 42626 ft 472 kts 285°
2026-05-05 19:25 48.47731 -84.93793 42632 ft 471 kts 285°
2026-05-05 19:25 48.49595 -85.03218 42632 ft 471 kts 285°
2026-05-05 19:26 48.51518 -85.12988 42646 ft 472 kts 285°
2026-05-05 19:26 48.53389 -85.22540 42659 ft 471 kts 285°
2026-05-05 19:27 48.55300 -85.32347 42654 ft 471 kts 285°
2026-05-05 19:27 48.57142 -85.41847 42648 ft 472 kts 285°
2026-05-05 19:28 48.59025 -85.51604 42657 ft 472 kts 285°
2026-05-05 19:28 48.60880 -85.61249 42662 ft 473 kts 285°
2026-05-05 19:29 48.62690 -85.70707 42670 ft 472 kts 285°
2026-05-05 19:29 48.64494 -85.80179 42686 ft 472 kts 285°
2026-05-05 19:30 48.66257 -85.89482 42679 ft 471 kts 285°
2026-05-05 19:30 48.68111 -85.99314 42671 ft 472 kts 285°
2026-05-05 19:31 48.69860 -86.08635 42687 ft 474 kts 285°
2026-05-05 19:31 48.71677 -86.18368 42684 ft 472 kts 285°
2026-05-05 19:32 48.73455 -86.27949 42681 ft 472 kts 285°
2026-05-05 19:32 48.75608 -86.37557 42695 ft 474 kts 293°
2026-05-05 19:33 48.78249 -86.46899 42695 ft 475 kts 292°
2026-05-05 19:33 48.80817 -86.56220 42696 ft 475 kts 292°
2026-05-05 19:34 48.83345 -86.65444 42689 ft 474 kts 291°
2026-05-05 19:35 48.87004 -86.78870 42692 ft 474 kts 291°
2026-05-05 19:35 48.89505 -86.88084 42689 ft 475 kts 291°
2026-05-05 19:36 48.92107 -86.97710 42687 ft 474 kts 291°
2026-05-05 19:36 48.94595 -87.06956 42673 ft 474 kts 291°
2026-05-05 19:37 48.97216 -87.16737 42659 ft 475 kts 291°
2026-05-05 19:37 48.99688 -87.25996 42655 ft 475 kts 291°
2026-05-05 19:38 49.02274 -87.35722 42663 ft 475 kts 291°
2026-05-05 19:38 49.04731 -87.45002 42679 ft 474 kts 291°
2026-05-05 19:39 49.07314 -87.54798 42679 ft 475 kts 291°
2026-05-05 19:39 49.09762 -87.64122 42675 ft 475 kts 291°
2026-05-05 19:40 49.12201 -87.73449 42681 ft 476 kts 290°
2026-05-05 19:40 49.14575 -87.82563 42684 ft 475 kts 290°
2026-05-05 19:41 49.17092 -87.92269 42693 ft 474 kts 290°
2026-05-05 19:41 49.19506 -88.01611 42684 ft 475 kts 290°
2026-05-05 19:42 49.22022 -88.11391 42691 ft 475 kts 290°
2026-05-05 19:42 49.24435 -88.20813 42705 ft 476 kts 290°
2026-05-05 19:43 49.26913 -88.30531 42710 ft 476 kts 290°
2026-05-05 19:43 49.29322 -88.40013 42699 ft 477 kts 291°
2026-05-05 19:44 49.31817 -88.49878 42697 ft 478 kts 291°
2026-05-05 19:44 49.34209 -88.59379 42700 ft 478 kts 291°
2026-05-05 19:45 49.36666 -88.69180 42720 ft 478 kts 290°
2026-05-05 19:45 49.39011 -88.78569 42717 ft 479 kts 290°
2026-05-05 19:46 49.41437 -88.88332 42711 ft 479 kts 290°
2026-05-05 19:46 49.43805 -88.97898 42710 ft 479 kts 290°
2026-05-05 19:47 49.46189 -89.07569 42706 ft 478 kts 290°
2026-05-05 19:47 49.48525 -89.17087 42711 ft 479 kts 290°
2026-05-05 19:48 49.50840 -89.26566 42713 ft 480 kts 290°
2026-05-05 19:48 49.53189 -89.36219 42711 ft 481 kts 290°
2026-05-05 19:49 49.55466 -89.45621 42707 ft 481 kts 290°
2026-05-05 19:49 49.57807 -89.55325 42704 ft 481 kts 290°
2026-05-05 19:50 49.60081 -89.64797 42714 ft 481 kts 290°
2026-05-05 19:50 49.62324 -89.74176 42723 ft 481 kts 290°
2026-05-05 19:51 49.64651 -89.83952 42722 ft 481 kts 290°
2026-05-05 19:51 49.66990 -89.93823 42718 ft 482 kts 290°
2026-05-05 19:52 49.69230 -90.03320 42720 ft 482 kts 290°
2026-05-05 19:52 49.71546 -90.13181 42716 ft 482 kts 290°
2026-05-05 19:53 49.73870 -90.23120 42726 ft 483 kts 290°
2026-05-05 19:53 49.76186 -90.33076 42723 ft 483 kts 290°
2026-05-05 19:54 49.78500 -90.43063 42727 ft 483 kts 290°
2026-05-05 19:54 49.80792 -90.53006 42738 ft 484 kts 290°
2026-05-05 19:55 49.83096 -90.63047 42733 ft 484 kts 290°
2026-05-05 19:55 49.85271 -90.72569 42744 ft 484 kts 289°
2026-05-05 19:56 49.87536 -90.82534 42750 ft 484 kts 289°
2026-05-05 19:56 49.89775 -90.92427 42754 ft 485 kts 289°
2026-05-05 19:57 49.92008 -91.02337 42748 ft 486 kts 289°
2026-05-05 19:57 49.94214 -91.12178 42751 ft 485 kts 289°
2026-05-05 19:58 49.96465 -91.22269 42748 ft 485 kts 289°
2026-05-05 19:58 49.98695 -91.32310 42751 ft 485 kts 289°
2026-05-05 19:59 50.00832 -91.41981 42756 ft 485 kts 289°
2026-05-05 19:59 50.03046 -91.52051 42766 ft 485 kts 289°
2026-05-05 20:00 50.05256 -91.62144 42770 ft 486 kts 289°
2026-05-05 20:00 50.07326 -91.71647 42781 ft 487 kts 289°
2026-05-05 20:01 50.09461 -91.81493 42783 ft 487 kts 288°
2026-05-05 20:01 50.11161 -91.91502 42788 ft 485 kts 273°
2026-05-05 20:02 50.11205 -92.02097 42794 ft 487 kts 270°
2026-05-05 20:02 50.11052 -92.12643 42791 ft 488 kts 269°
2026-05-05 20:03 50.10870 -92.23139 42790 ft 487 kts 269°
2026-05-05 20:03 50.10674 -92.33711 42789 ft 488 kts 269°
2026-05-05 20:04 50.10465 -92.44495 42793 ft 489 kts 269°
2026-05-05 20:04 50.10250 -92.55083 42795 ft 490 kts 269°
2026-05-05 20:05 50.09868 -92.65556 42808 ft 488 kts 270°
2026-05-05 20:05 50.09495 -92.70798 42804 ft 490 kts 256°
2026-05-05 20:05 50.08334 -92.75761 42835 ft 492 kts 248°
2026-05-05 20:06 50.05637 -92.85495 42811 ft 493 kts 248°
2026-05-05 20:06 50.04341 -92.90171 42806 ft 481 kts 248°
2026-05-05 20:06 50.03038 -92.94866 42421 ft 472 kts 248°
2026-05-05 20:06 50.01712 -92.99639 41555 ft 473 kts 248°
2026-05-05 20:07 50.00431 -93.04247 40699 ft 474 kts 248°
2026-05-05 20:07 49.99186 -93.08722 39881 ft 474 kts 248°
2026-05-05 20:07 49.97887 -93.13393 39008 ft 475 kts 248°
2026-05-05 20:07 49.96530 -93.18282 38060 ft 476 kts 248°
2026-05-05 20:08 49.95227 -93.22974 37240 ft 477 kts 248°
2026-05-05 20:08 49.93974 -93.27486 36514 ft 476 kts 248°
2026-05-05 20:08 49.92688 -93.32125 35762 ft 476 kts 248°
2026-05-05 20:08 49.91351 -93.36947 34971 ft 475 kts 249°
2026-05-05 20:09 49.90078 -93.41544 34210 ft 474 kts 249°
2026-05-05 20:09 49.88806 -93.46126 33421 ft 473 kts 249°
2026-05-05 20:09 49.87538 -93.50715 32732 ft 473 kts 249°
2026-05-05 20:09 49.86277 -93.55279 32045 ft 472 kts 249°
2026-05-05 20:10 49.84987 -93.59942 31396 ft 471 kts 249°
2026-05-05 20:10 49.83741 -93.64441 30980 ft 461 kts 249°
2026-05-05 20:10 49.82529 -93.68806 30633 ft 449 kts 248°
2026-05-05 20:10 49.81234 -93.73475 30262 ft 451 kts 248°
2026-05-05 20:11 49.79993 -93.77983 29897 ft 456 kts 248°
2026-05-05 20:11 49.78766 -93.82468 29537 ft 458 kts 248°
2026-05-05 20:11 49.77552 -93.86927 29177 ft 458 kts 249°
2026-05-05 20:11 49.76288 -93.91604 28796 ft 457 kts 249°
2026-05-05 20:12 49.75013 -93.96318 28409 ft 457 kts 249°
2026-05-05 20:12 49.73750 -94.00985 27974 ft 457 kts 249°
2026-05-05 20:12 49.72530 -94.05510 27548 ft 457 kts 249°
2026-05-05 20:12 49.71241 -94.10291 27102 ft 458 kts 249°
2026-05-05 20:13 49.70021 -94.14829 26677 ft 458 kts 249°
2026-05-05 20:13 49.68847 -94.19253 26257 ft 458 kts 250°
2026-05-05 20:13 49.68142 -94.24023 25800 ft 456 kts 266°
2026-05-05 20:13 49.68370 -94.28974 25339 ft 440 kts 283°
2026-05-05 20:14 49.69060 -94.33480 24961 ft 422 kts 282°
2026-05-05 20:14 49.69602 -94.37814 24569 ft 414 kts 281°
2026-05-05 20:14 49.70088 -94.42189 24165 ft 413 kts 280°
2026-05-05 20:14 49.70559 -94.46671 23757 ft 412 kts 280°
2026-05-05 20:15 49.71012 -94.51089 23353 ft 410 kts 280°
2026-05-05 20:15 49.71451 -94.55413 22953 ft 408 kts 280°
2026-05-05 20:15 49.71880 -94.59671 22558 ft 405 kts 280°
2026-05-05 20:15 49.72298 -94.63837 22171 ft 403 kts 280°
2026-05-05 20:16 49.72704 -94.67904 21789 ft 393 kts 279°
2026-05-05 20:16 49.73114 -94.72016 21381 ft 384 kts 279°
2026-05-05 20:16 49.73517 -94.76081 20982 ft 382 kts 279°
2026-05-05 20:16 49.73893 -94.79879 20612 ft 381 kts 280°
2026-05-05 20:17 49.74307 -94.84099 20206 ft 378 kts 280°
2026-05-05 20:17 49.74706 -94.88164 19800 ft 376 kts 280°
2026-05-05 20:17 49.74919 -94.92250 19379 ft 375 kts 271°
2026-05-05 20:17 49.74979 -94.96081 19015 ft 368 kts 274°
2026-05-05 20:18 49.75031 -95.00066 18592 ft 356 kts 273°
2026-05-05 20:18 49.75048 -95.03822 18185 ft 346 kts 272°
2026-05-05 20:18 49.75051 -95.07545 17874 ft 339 kts 272°
2026-05-05 20:18 49.75048 -95.11201 17611 ft 345 kts 272°
2026-05-05 20:19 49.75043 -95.14963 17372 ft 357 kts 272°
2026-05-05 20:19 49.75031 -95.18847 17114 ft 358 kts 272°
2026-05-05 20:19 49.75018 -95.22755 16848 ft 356 kts 272°
2026-05-05 20:19 49.75004 -95.26667 16571 ft 353 kts 272°
2026-05-05 20:20 49.74990 -95.30387 16312 ft 353 kts 272°
2026-05-05 20:20 49.74973 -95.34197 16046 ft 351 kts 272°
2026-05-05 20:20 49.74956 -95.38002 15779 ft 350 kts 272°
2026-05-05 20:20 49.74936 -95.41943 15499 ft 349 kts 272°
2026-05-05 20:21 49.74917 -95.45683 15233 ft 347 kts 272°
2026-05-05 20:21 49.74896 -95.49377 14969 ft 346 kts 272°
2026-05-05 20:21 49.74874 -95.53162 14702 ft 345 kts 273°
2026-05-05 20:21 49.74850 -95.57009 14425 ft 343 kts 272°
2026-05-05 20:22 49.74826 -95.60565 14156 ft 329 kts 273°
2026-05-05 20:22 49.74802 -95.64085 13878 ft 322 kts 273°
2026-05-05 20:22 49.74788 -95.66123 13722 ft 321 kts 272°
2026-05-05 20:22 49.74764 -95.69448 13471 ft 321 kts 272°
2026-05-05 20:23 49.74738 -95.72869 13207 ft 321 kts 272°
2026-05-05 20:23 49.74713 -95.76035 12960 ft 320 kts 272°
2026-05-05 20:23 49.74685 -95.79484 12691 ft 318 kts 272°
2026-05-05 20:23 49.74655 -95.83037 12415 ft 317 kts 272°
2026-05-05 20:24 49.74625 -95.86451 12148 ft 316 kts 272°
2026-05-05 20:24 49.74595 -95.89758 11889 ft 315 kts 272°
2026-05-05 20:24 49.74563 -95.93171 11621 ft 313 kts 272°
2026-05-05 20:24 49.74529 -95.96728 11341 ft 312 kts 273°
2026-05-05 20:25 49.74496 -96.00068 11077 ft 311 kts 272°
2026-05-05 20:25 49.74463 -96.03287 10817 ft 310 kts 272°
2026-05-05 20:25 49.74428 -96.06635 10551 ft 309 kts 272°
2026-05-05 20:25 49.74390 -96.10100 10267 ft 301 kts 272°
2026-05-05 20:26 49.74354 -96.13216 9997 ft 291 kts 273°
2026-05-05 20:26 49.74319 -96.16191 9909 ft 276 kts 273°
2026-05-05 20:26 49.74286 -96.19092 9914 ft 271 kts 273°
2026-05-05 20:26 49.74251 -96.22173 9923 ft 272 kts 273°
2026-05-05 20:27 49.74216 -96.25108 9926 ft 273 kts 273°
2026-05-05 20:27 49.74181 -96.27985 9923 ft 274 kts 273°
2026-05-05 20:27 49.74144 -96.30924 9919 ft 273 kts 273°
2026-05-05 20:27 49.74104 -96.33974 9917 ft 273 kts 273°
2026-05-05 20:28 49.74066 -96.36923 9918 ft 273 kts 273°
2026-05-05 20:28 49.74028 -96.39781 9922 ft 273 kts 273°
2026-05-05 20:28 49.73989 -96.42666 9920 ft 273 kts 273°
2026-05-05 20:28 49.73947 -96.45640 9926 ft 273 kts 273°
2026-05-05 20:29 49.73906 -96.48567 9926 ft 273 kts 273°
2026-05-05 20:29 49.73864 -96.51494 9929 ft 273 kts 273°
2026-05-05 20:29 49.73846 -96.54359 9933 ft 273 kts 274°
2026-05-05 20:29 49.73846 -96.57278 9933 ft 273 kts 274°
2026-05-05 20:30 49.73844 -96.60238 9938 ft 273 kts 274°
2026-05-05 20:30 49.73841 -96.63169 9703 ft 274 kts 274°
2026-05-05 20:30 49.73838 -96.65868 9335 ft 271 kts 273°
2026-05-05 20:30 49.73833 -96.68571 8947 ft 270 kts 274°
2026-05-05 20:31 49.73828 -96.71545 8515 ft 269 kts 273°
2026-05-05 20:31 49.73822 -96.74432 8092 ft 268 kts 274°
2026-05-05 20:31 49.73815 -96.77265 7677 ft 266 kts 274°
2026-05-05 20:31 49.73808 -96.80011 7267 ft 265 kts 273°
2026-05-05 20:32 49.73800 -96.82880 6838 ft 264 kts 273°
2026-05-05 20:32 49.73792 -96.85725 6412 ft 263 kts 273°
2026-05-05 20:32 49.73781 -96.88570 5928 ft 253 kts 272°
2026-05-05 20:32 49.73767 -96.91162 6052 ft 217 kts 274°
2026-05-05 20:33 49.73759 -96.93450 5929 ft 207 kts 274°
2026-05-05 20:33 49.73749 -96.95610 5944 ft 193 kts 274°
2026-05-05 20:33 49.73734 -96.97639 5940 ft 179 kts 275°
2026-05-05 20:33 49.73702 -96.99611 5944 ft 176 kts 275°
2026-05-05 20:34 49.73677 -97.01609 5975 ft 193 kts 274°
2026-05-05 20:34 49.73645 -97.03760 5972 ft 207 kts 273°
2026-05-05 20:34 49.73607 -97.06054 5968 ft 211 kts 273°
2026-05-05 20:34 49.73565 -97.08377 5947 ft 200 kts 274°
2026-05-05 20:35 49.73529 -97.10496 5959 ft 200 kts 274°
2026-05-05 20:35 49.73493 -97.12658 5964 ft 202 kts 273°
2026-05-05 20:35 49.73436 -97.14851 5961 ft 204 kts 271°
2026-05-05 20:35 49.73348 -97.17198 5964 ft 205 kts 271°
2026-05-05 20:36 49.73259 -97.19341 5967 ft 205 kts 275°
2026-05-05 20:36 49.73298 -97.21577 5788 ft 214 kts 276°
2026-05-05 20:36 49.73366 -97.23985 5120 ft 230 kts 277°
2026-05-05 20:36 49.73477 -97.26672 3520 ft 235 kts 278°
2026-05-05 20:37 49.73915 -97.28808 3230 ft 190 kts 308°
2026-05-05 20:37 49.74860 -97.29988 3172 ft 168 kts 336°
2026-05-05 20:37 49.76088 -97.30016 2459 ft 194 kts 13°
2026-05-05 20:37 49.77443 -97.29224 2226 ft 192 kts 22°
2026-05-05 20:38 49.78519 -97.28081 2087 ft 186 kts 31°
2026-05-05 20:38 49.79519 -97.26849 1823 ft 187 kts 33°
2026-05-05 20:38 49.80589 -97.25822 1668 ft 172 kts 17°
2026-05-05 20:38 49.81779 -97.25347 1493 ft 160 kts
2026-05-05 20:39 49.82745 -97.25219 1572 ft 139 kts 358°
2026-05-05 20:39 49.83427 -97.25227 1624 ft 140 kts 354°
2026-05-05 20:39 49.84405 -97.25296 1728 ft 140 kts 354°
2026-05-05 20:39 49.85390 -97.25111 1802 ft 127 kts
2026-05-05 20:40 49.86214 -97.24846 1612 ft 116 kts
2026-05-05 20:40 49.87013 -97.24700 1237 ft 122 kts 360°
2026-05-05 20:40 49.87862 -97.24534 1154 ft 123 kts
2026-05-05 20:40 49.88705 -97.24344 949 ft 108 kts
2026-05-05 20:41 49.89476 -97.24181 840 ft 115 kts
2026-05-05 20:41 49.90184 -97.24020 773 ft 91 kts
2026-05-05 20:41 49.90791 -97.23905 774 ft 76 kts
2026-05-05 20:41 49.91159 -97.23778 776 ft 30 kts 12°
2026-05-05 20:42 49.91208 -97.23672 776 ft 10 kts 99°
2026-05-05 20:42 49.91173 -97.23580 776 ft 10 kts 144°
2026-05-05 20:42 49.91104 -97.23534 775 ft 11 kts 162°
2026-05-05 20:42 49.91027 -97.23480 773 ft 12 kts 149°
2026-05-05 20:43 49.90947 -97.23410 772 ft 15 kts 154°
2026-05-05 20:43 49.90807 -97.23312 772 ft 27 kts 157°
2026-05-05 20:43 49.90602 -97.23326 769 ft 27 kts 199°
2026-05-05 20:43 49.90424 -97.23421 769 ft 25 kts 197°
2026-05-05 20:44 49.90268 -97.23404 768 ft 23 kts 143°
2026-05-05 20:44 49.90147 -97.23226 766 ft 23 kts 137°
2026-05-05 20:44 49.90021 -97.23055 766 ft 23 kts 139°
2026-05-05 20:44 49.89897 -97.22881 763 ft 23 kts 132°
2026-05-05 20:45 49.89673 -97.22550 762 ft 16 kts 212°
2026-05-05 20:45 49.89594 -97.22671 762 ft 14 kts 229°
2026-05-05 20:45 49.89520 -97.22804 762 ft 16 kts 227°
2026-05-05 20:46 49.89483 -97.22970 762 ft 19 kts 278°
2026-05-05 20:46 49.89503 -97.23219 763 ft 21 kts 279°
2026-05-05 20:46 49.89478 -97.23364 765 ft 15 kts 210°
2026-05-05 20:46 49.89439 -97.23442 765 ft 8 kts 310°
2026-05-05 20:47 49.89448 -97.23517 766 ft 6 kts 197°
2026-05-05 20:47 49.89426 -97.23479 765 ft 0 kts 109°
2026-05-05 20:47 49.89432 -97.23455 765 ft 1 kts 65°
2026-05-05 20:47 49.89423 -97.23423 764 ft 0 kts 122°